Content
SEND FEEDBACK

Daily
Averages
Monthly
Summary
United States of America

GEARY, OKLAHOMA


Home > North America > United States > Oklahoma
Elevation: 1594 feet     Latitude: 35 37N     Longitude: 098 19W

WEATHER
 
SELECT A DAY
Number of Records: 286,512;   Date Range: 3/30/01 - 9/30/14
 
SHARE

PRINT THIS DATA

[ ← Previous Day ]
WEATHER ALMANAC - JANUARY 31, 2013
[ Next Day → ]
[ °C ]   °F
Weather ElementAverageHighLow
Temperature37.7 °F54.5 °F (11:35 am)24.1 °F (11:55 pm)
Dewpoint25.1 °F31.8 °F (2:35 pm)17.1 °F (11:35 pm)
Humidity62.1 %80 % (10:15 pm)38 % (11:35 am)
Barometer30.16 in30.41 in (8:55 pm)30.01 in (4:35 am)
Wind Speed10.5 mph26.5 mph (3:55 pm)
Wind Gust31.1 mph (3:55 pm)
Weather ElementAverage
Visibility10 mi
Wind DirectionESE (115.7 °)

Weather ElementTotal
Precipitation---
Heating Degree Days25.7 (Base 65)
Averaged from 67 records on January 31, 2013
WEATHER CONDITIONS BREAKOUT
WIND DIRECTION BREAKOUT
WEATHER BY HOUR - JANUARY 31, 2013
[ °C ]   °F
Local TimeTemperatureDewpointHumidityBarometerVisibilityWind DirectionWind SpeedGust SpeedPrecipitationEventsConditions
12:35 AM36.9 °F24.4 °F61 %30.04 in10.0 miWest (260°)5.8 mphClear
12:55 AM35.6 °F24.8 °F65 %30.04 in10.0 miWest (270°)5.8 mphClear
1:15 AM34.9 °F24.4 °F66 %30.04 in10.0 miWSW (250°)4.6 mphClear
1:35 AM33.8 °F25.2 °F71 %30.04 in10.0 miSW (230°)9.2 mphClear
1:55 AM34.2 °F24.6 °F68 %30.03 in10.0 miWSW (240°)6.9 mphClear
2:15 AM33.3 °F25.0 °F72 %30.03 in10.0 miCalmClear
2:35 AM32.7 °F25.0 °F73 %30.03 in10.0 miWest (280°)3.5 mphClear
2:55 AM33.3 °F24.3 °F70 %30.03 in10.0 miCalmClear
3:15 AM31.6 °F25.9 °F79 %30.02 in10.0 miSSW (210°)5.8 mphClear
3:35 AM33.3 °F25.2 °F72 %30.02 in10.0 miCalmClear
3:55 AM33.4 °F25.3 °F72 %30.02 in10.0 miCalmClear
4:15 AM33.1 °F25.0 °F72 %30.02 in10.0 miSouth (190°)4.6 mphClear
4:35 AM32.5 °F24.6 °F73 %30.01 in10.0 miSW (230°)4.6 mphClear
4:55 AM32.5 °F23.7 °F70 %30.01 in10.0 miWSW (250°)5.8 mphClear
5:15 AM34.7 °F23.0 °F62 %30.01 in10.0 miWest (260°)4.6 mphClear
5:35 AM34.5 °F23.4 °F64 %30.01 in10.0 miWSW (240°)3.5 mphClear
5:55 AM34.9 °F23.5 °F63 %30.02 in10.0 miSSW (210°)5.8 mphClear
6:15 AM34.0 °F24.4 °F68 %30.02 in10.0 miSW (220°)9.2 mphClear
6:35 AM34.3 °F23.5 °F65 %30.02 in10.0 miSW (220°)4.6 mphClear
6:55 AM35.1 °F22.3 °F60 %30.03 in10.0 miWSW (240°)6.9 mphClear
7:15 AM36.0 °F21.4 °F55 %30.03 in10.0 miSW (220°)8.1 mphClear
7:35 AM35.2 °F22.3 °F59 %30.04 in10.0 miSW (230°)5.8 mphClear
7:55 AM35.8 °F21.6 °F56 %30.04 in10.0 miSW (230°)6.9 mphClear
8:15 AM36.7 °F21.4 °F54 %30.05 in10.0 miWSW (250°)4.6 mphClear
8:35 AM37.2 °F21.9 °F54 %30.06 in10.0 miWSW (250°)5.8 mphClear
9:15 AM41.4 °F22.3 °F47 %30.04 in10.0 miSW (220°)9.2 mphClear
9:35 AM42.1 °F24.1 °F49 %30.06 in10.0 miSSW (210°)8.1 mphClear
9:55 AM44.2 °F25.7 °F48 %30.06 in10.0 miSSW (210°)8.1 mphClear
10:15 AM46.0 °F25.5 °F45 %30.07 in10.0 miSW (220°)8.1 mphClear
10:35 AM46.6 °F25.3 °F43 %30.08 in10.0 miSSW (210°)6.9 mphClear
10:55 AM48.4 °F26.1 °F42 %30.09 in10.0 miSW (230°)4.6 mphClear
11:15 AM49.8 °F27.9 °F43 %30.10 in10.0 miCalmClear
11:35 AM54.5 °F29.3 °F38 %30.11 in10.0 miNNW (330°)8.1 mphClear
12:15 PM50.9 °F29.5 °F44 %30.11 in10.0 miNNE (20°)11.5 mphClear
12:35 PM51.8 °F30.6 °F44 %30.11 in10.0 miNE (40°)11.5 mphClear
12:55 PM52.7 °F30.7 °F43 %30.11 in10.0 miNNE (20°)16.1 mphClear
1:15 PM54.1 °F31.5 °F42 %30.11 in10.0 miNNE (30°)21.9 mphClear
1:35 PM53.2 °F30.4 °F42 %30.11 in10.0 miNorth (10°)17.3 mph25.3 mphClear
1:55 PM53.8 °F30.2 °F41 %30.12 in10.0 miNNE (20°)17.3 mph23.0 mphClear
2:15 PM52.7 °F31.5 °F44 %30.13 in10.0 miNE (40°)19.6 mph27.6 mphClear
2:35 PM51.6 °F31.8 °F47 %30.14 in10.0 miNE (40°)24.2 mphClear
3:15 PM49.5 °F31.8 °F51 %30.16 in10.0 miNNE (30°)20.7 mph28.8 mphClear
3:35 PM48.2 °F31.3 °F52 %30.18 in10.0 miNNE (30°)19.6 mph29.9 mphClear
3:55 PM45.5 °F30.4 °F56 %30.20 in10.0 miNNE (30°)26.5 mph31.1 mphClear
4:15 PM44.6 °F30.7 °F58 %30.21 in10.0 miNNE (20°)21.9 mph28.8 mphClear
4:35 PM43.7 °F31.5 °F62 %30.23 in10.0 miNNE (30°)19.6 mph25.3 mphClear
4:55 PM42.1 °F30.6 °F64 %30.24 in10.0 miNNE (30°)23.0 mph26.5 mphClear
5:15 PM40.6 °F29.5 °F64 %30.25 in10.0 miNNE (30°)19.6 mphClear
5:35 PM39.0 °F28.8 °F67 %30.28 in10.0 miNNE (30°)19.6 mphClear
5:55 PM37.4 °F28.0 °F69 %30.30 in10.0 miNNE (30°)12.7 mphClear
6:15 PM35.6 °F27.3 °F72 %30.32 in10.0 miNNE (30°)17.3 mphClear
6:35 PM34.7 °F26.4 °F72 %30.33 in10.0 miNNE (30°)12.7 mph20.7 mphClear
6:55 PM33.4 °F24.3 °F69 %30.35 in10.0 miNNE (30°)16.1 mphClear
7:15 PM31.8 °F23.5 °F71 %30.37 in10.0 miNNE (30°)17.3 mph21.9 mphClear
7:35 PM30.2 °F22.3 °F72 %30.38 in10.0 miNNE (30°)16.1 mphClear
8:15 PM28.4 °F19.9 °F71 %30.40 in10.0 miNE (40°)12.7 mphClear
8:35 PM27.9 °F20.3 °F73 %30.40 in10.0 miNE (40°)11.5 mphClear
8:55 PM27.3 °F20.5 °F75 %30.41 in10.0 miNNE (30°)11.5 mphClear
9:15 PM26.6 °F20.5 °F78 %30.41 in10.0 miNNE (30°)9.2 mphClear
9:35 PM26.6 °F20.7 °F78 %30.40 in10.0 miNE (40°)10.4 mphClear
9:55 PM26.6 °F20.7 °F78 %30.41 in10.0 miNNE (30°)9.2 mphClear
10:15 PM25.7 °F20.3 °F80 %30.41 in10.0 miNE (40°)8.1 mphClear
10:35 PM25.7 °F20.3 °F80 %30.39 in10.0 miENE (60°)11.5 mphClear
10:55 PM25.3 °F19.9 °F80 %30.40 in10.0 miNE (50°)11.5 mphClear
11:15 PM24.8 °F17.6 °F74 %30.40 in10.0 miNE (40°)12.7 mphClear
11:35 PM24.6 °F17.1 °F73 %30.39 in10.0 miNE (50°)10.4 mphClear
11:55 PM24.1 °F17.1 °F75 %30.40 in10.0 miENE (60°)10.4 mphClear
Hourly data recorded from KJWG, located miles away from Geary, Oklahoma







STORIES FROM OUR PARTNERS